Location: Cambridge
(43.3830°N, 80.3170°W)
Time: 02:21:32
(UTC-05:00)

Envisat - Pass Details

Date: 27 October 2019
Orbit: 764 x 766 km, 98.1° (Epoch: 14 November)

Event Time Altitude Azimuth Distance (km) Brightness Sun altitude
Rises 20:50:11 0° 215° (SW) 3,220 6.6 -27.9°
Reaches altitude 10° 20:53:40 10° 241° (WSW) 2,300 6.1 -28.5°
Maximum altitude 20:56:14 14° 271° (W) 2,046 6.0 -29.0°
Drops below altitude 10° 20:58:48 10° 302° (WNW) 2,308 6.3 -29.4°
Sets 21:02:20 0° 328° (NNW) 3,240 6.8 -30.0°
